• In Hungary
  • List of Countries
  • For 7 days
  • Water Temperature
  • Satellite Maps
  • Weather Map
  • News
  • Weather Widgets
  • user-avatar
    Login

    Hourly Weather Vasteras

    Today, 24 May, Thursday

    Time Temperature Precipitation Wind Pressure Humidity
    00:00 +11°C° 0 mm 1 mps 770 mmHg 67%
    01:00 +11°C° 0 mm 1 mps 770 mmHg 66%
    02:00 +11°C° 0 mm 1 mps 770 mmHg 66%
    03:00 +11°C° 0 mm 1 mps 770 mmHg 65%
    04:00 +11°C° 0 mm 1 mps 770 mmHg 65%
    05:00 +13°C° 0 mm 1 mps 771 mmHg 58%
    06:00 +15°C° 0 mm 1 mps 771 mmHg 51%
    07:00 +18°C° 0 mm 1 mps 771 mmHg 45%
    08:00 +20°C° 0 mm 1 mps 771 mmHg 41%
    09:00 +21°C° 0 mm 1 mps 771 mmHg 37%
    10:00 +23°C° 0 mm 2 mps 771 mmHg 33%
    11:00 +24°C° 0 mm 2 mps 771 mmHg 32%
    12:00 +25°C° 0 mm 2 mps 770 mmHg 31%
    13:00 +26°C° 0 mm 2 mps 770 mmHg 30%
    14:00 +26°C° 0 mm 2 mps 770 mmHg 31%
    15:00 +26°C° 0 mm 2 mps 769 mmHg 31%
    16:00 +26°C° 0 mm 2 mps 769 mmHg 31%
    17:00 +25°C° 0 mm 2 mps 769 mmHg 35%
    18:00 +24°C° 0 mm 2 mps 769 mmHg 38%
    19:00 +21°C° 0 mm 3 mps 769 mmHg 42%
    20:00 +19°C° 0 mm 2 mps 769 mmHg 44%
    21:00 +17°C° 0 mm 2 mps 769 mmHg 47%
    22:00 +14°C° 0 mm 2 mps 769 mmHg 49%
    23:00 +14°C° 0 mm 2 mps 769 mmHg 50%

    Tomorrow, 25 May, Friday

    Time Temperature Precipitation Wind Pressure Humidity
    00:00 +13°C° 0 mm 2 mps 769 mmHg 50%
    01:00 +12°C° 0 mm 2 mps 769 mmHg 51%
    02:00 +12°C° 0 mm 1 mps 769 mmHg 51%
    03:00 +12°C° 0 mm 1 mps 769 mmHg 52%
    04:00 +12°C° 0 mm 1 mps 769 mmHg 53%
    05:00 +14°C° 0 mm 1 mps 769 mmHg 49%
    06:00 +16°C° 0 mm 1 mps 769 mmHg 44%
    07:00 +19°C° 0 mm 1 mps 769 mmHg 40%
    08:00 +20°C° 0 mm 2 mps 769 mmHg 37%
    09:00 +23°C° 0 mm 2 mps 769 mmHg 33%
    10:00 +25°C° 0 mm 2 mps 769 mmHg 30%
    11:00 +25°C° 0 mm 2 mps 769 mmHg 29%
    12:00 +26°C° 0 mm 2 mps 769 mmHg 28%
    13:00 +27°C° 0 mm 3 mps 769 mmHg 28%
    14:00 +27°C° 0 mm 3 mps 769 mmHg 28%
    15:00 +26°C° 0 mm 3 mps 769 mmHg 28%
    16:00 +26°C° 0 mm 3 mps 768 mmHg 29%
    17:00 +25°C° 0 mm 3 mps 768 mmHg 33%
    18:00 +23°C° 0 mm 2 mps 768 mmHg 37%
    19:00 +21°C° 0 mm 2 mps 768 mmHg 41%
    20:00 +18°C° 0 mm 2 mps 768 mmHg 47%
    21:00 +16°C° 0 mm 2 mps 769 mmHg 54%
    22:00 +14°C° 0 mm 2 mps 769 mmHg 60%
    23:00 +13°C° 0 mm 1 mps 769 mmHg 62%

    Day after tomorrow, 26 May, Saturday

    Time Temperature Precipitation Wind Pressure Humidity
    00:00 +12°C° 0 mm 1 mps 769 mmHg 65%
    01:00 +11°C° 0 mm 1 mps 769 mmHg 68%
    02:00 +11°C° 0 mm 1 mps 769 mmHg 69%
    03:00 +11°C° 0 mm 1 mps 769 mmHg 70%
    04:00 +10°C° 0 mm 0 mps 769 mmHg 71%
    05:00 +12°C° 0 mm 0 mps 769 mmHg 63%
    06:00 +15°C° 0 mm 1 mps 769 mmHg 55%
    07:00 +19°C° 0 mm 1 mps 769 mmHg 47%
    08:00 +21°C° 0 mm 1 mps 769 mmHg 42%
    09:00 +23°C° 0 mm 1 mps 769 mmHg 37%
    10:00 +25°C° 0 mm 1 mps 769 mmHg 32%
    11:00 +26°C° 0 mm 1 mps 769 mmHg 30%
    12:00 +27°C° 0 mm 1 mps 768 mmHg 27%
    13:00 +28°C° 0 mm 1 mps 768 mmHg 25%
    14:00 +28°C° 0 mm 1 mps 768 mmHg 26%
    15:00 +28°C° 0 mm 1 mps 768 mmHg 26%
    16:00 +28°C° 0 mm 1 mps 768 mmHg 27%
    17:00 +26°C° 0 mm 1 mps 768 mmHg 33%
    18:00 +25°C° 0 mm 2 mps 768 mmHg 39%
    19:00 +23°C° 0 mm 2 mps 768 mmHg 45%
    20:00 +21°C° 0 mm 1 mps 768 mmHg 53%
    21:00 +19°C° 0 mm 1 mps 769 mmHg 60%
    22:00 +16°C° 0 mm 1 mps 769 mmHg 67%
    23:00 +15°C° 0 mm 1 mps 769 mmHg 69%

    27 May, Sunday

    Time Temperature Precipitation Wind Pressure Humidity
    00:00 +14°C° 0 mm 1 mps 769 mmHg 71%
    01:00 +14°C° 0 mm 2 mps 770 mmHg 72%
    02:00 +13°C° 0 mm 2 mps 770 mmHg 72%
    03:00 +13°C° 0 mm 2 mps 770 mmHg 72%
    04:00 +13°C° 0 mm 2 mps 770 mmHg 71%
    05:00 +14°C° 0 mm 2 mps 770 mmHg 63%
    06:00 +16°C° 0 mm 3 mps 770 mmHg 55%
    07:00 +18°C° 0 mm 3 mps 771 mmHg 47%
    08:00 +20°C° 0 mm 3 mps 771 mmHg 41%
    09:00 +21°C° 0 mm 3 mps 771 mmHg 34%
    10:00 +23°C° 0 mm 4 mps 771 mmHg 28%
    11:00 +25°C° 0 mm 4 mps 771 mmHg 27%
    12:00 +26°C° 0 mm 4 mps 771 mmHg 26%
    13:00 +26°C° 0 mm 4 mps 771 mmHg 25%
    14:00 +26°C° 0 mm 4 mps 771 mmHg 26%
    15:00 +26°C° 0 mm 4 mps 771 mmHg 27%
    16:00 +25°C° 0 mm 4 mps 771 mmHg 28%
    17:00 +23°C° 0 mm 4 mps 771 mmHg 31%
    18:00 +21°C° 0 mm 4 mps 771 mmHg 35%
    19:00 +19°C° 0 mm 3 mps 771 mmHg 39%
    20:00 +17°C° 0 mm 3 mps 771 mmHg 45%
    21:00 +15°C° 0 mm 2 mps 772 mmHg 51%
    22:00 +13°C° 0 mm 2 mps 772 mmHg 58%
    23:00 +12°C° 0 mm 2 mps 772 mmHg 60%

    28 May, Monday

    Time Temperature Precipitation Wind Pressure Humidity
    00:00 +10°C° 0 mm 2 mps 772 mmHg 61%
    01:00 +9°C° 0 mm 2 mps 772 mmHg 63%
    02:00 +9°C° 0 mm 2 mps 772 mmHg 62%
    03:00 +9°C° 0 mm 2 mps 772 mmHg 62%
    04:00 +9°C° 0 mm 2 mps 772 mmHg 61%
    05:00 +12°C° 0 mm 2 mps 772 mmHg 56%
    06:00 +14°C° 0 mm 2 mps 772 mmHg 50%
    07:00 +16°C° 0 mm 2 mps 772 mmHg 45%
    08:00 +18°C° 0 mm 2 mps 772 mmHg 42%
    09:00 +21°C° 0 mm 2 mps 772 mmHg 39%
    10:00 +24°C° 0 mm 2 mps 772 mmHg 35%
    11:00 +25°C° 0 mm 3 mps 772 mmHg 36%
    12:00 +26°C° 0 mm 3 mps 771 mmHg 36%
    13:00 +27°C° 0 mm 3 mps 771 mmHg 37%
    14:00 +27°C° 0 mm 3 mps 771 mmHg 38%
    15:00 +27°C° 0 mm 4 mps 770 mmHg 39%
    16:00 +26°C° 0 mm 4 mps 770 mmHg 40%
    17:00 +25°C° 0 mm 4 mps 770 mmHg 44%
    18:00 +24°C° 0 mm 3 mps 770 mmHg 48%
    19:00 +21°C° 0 mm 3 mps 770 mmHg 51%
    20:00 +19°C° 0 mm 3 mps 770 mmHg 58%
    21:00 +17°C° 0 mm 2 mps 770 mmHg 65%
    22:00 +15°C° 0 mm 2 mps 770 mmHg 72%
    23:00 +14°C° 0 mm 2 mps 770 mmHg 74%

    29 May, Tuesday

    Time Temperature Precipitation Wind Pressure Humidity
    00:00 +13°C° 0 mm 1 mps 770 mmHg 75%
    01:00 +13°C° 0 mm 1 mps 770 mmHg 77%
    02:00 +13°C° 0 mm 1 mps 770 mmHg 77%
    03:00 +13°C° 0 mm 1 mps 770 mmHg 77%
    04:00 +13°C° 0 mm 1 mps 769 mmHg 76%
    05:00 +15°C° 0 mm 1 mps 769 mmHg 70%
    06:00 +18°C° 0 mm 1 mps 769 mmHg 64%
    07:00 +19°C° 0 mm 2 mps 769 mmHg 58%
    08:00 +21°C° 0 mm 2 mps 769 mmHg 54%
    09:00 +24°C° 0 mm 2 mps 769 mmHg 50%
    10:00 +26°C° 0 mm 3 mps 768 mmHg 46%
    11:00 +26°C° 0 mm 3 mps 768 mmHg 44%
    12:00 +27°C° 0 mm 3 mps 768 mmHg 42%
    13:00 +27°C° 0 mm 3 mps 767 mmHg 40%
    14:00 +27°C° 0 mm 3 mps 767 mmHg 41%
    15:00 +27°C° 0 mm 3 mps 767 mmHg 42%
    16:00 +27°C° 0 mm 3 mps 766 mmHg 43%
    17:00 +26°C° 0 mm 3 mps 766 mmHg 48%
    18:00 +24°C° 0 mm 3 mps 766 mmHg 54%
    19:00 +23°C° 0 mm 2 mps 766 mmHg 59%
    20:00 +20°C° 0 mm 2 mps 766 mmHg 65%
    21:00 +19°C° 0 mm 2 mps 766 mmHg 71%
    22:00 +17°C° 0 mm 2 mps 766 mmHg 77%
    23:00 +18°C° 0 mm 1 mps 766 mmHg 78%
    Show more